Time,TemperatureF,DewpointF,PressureIn,WindDirection,WindDirectionDegrees,WindSpeedMPH,WindSpeedGustMPH,Humidity,HourlyPrecipIn,Conditions,Clouds,dailyrainin,SoftwareType,DateUTC
2013-02-22 00:00:00,22.0,16.5,30.49,NNE,16,0.0,0.0,79,0.00,,,0.00,Wunderground v.1.15,2013-02-22 05:00:00,
2013-02-22 00:10:00,21.2,15.7,30.50,NNE,16,0.0,0.0,79,0.00,,,0.00,Wunderground v.1.15,2013-02-22 05:10:00,
2013-02-22 00:15:00,20.8,15.6,30.49,NNE,16,0.0,0.0,80,0.00,,,0.00,Wunderground v.1.15,2013-02-22 05:15:00,
2013-02-22 00:20:00,20.6,15.7,30.49,NNE,16,0.0,0.0,81,0.00,,,0.00,Wunderground v.1.15,2013-02-22 05:20:00,
2013-02-22 00:30:00,20.1,15.2,30.50,NNE,16,0.0,0.0,81,0.00,,,0.00,Wunderground v.1.15,2013-02-22 05:30:00,
2013-02-22 00:35:00,19.8,14.9,30.50,NNE,16,0.0,0.0,81,0.00,,,0.00,Wunderground v.1.15,2013-02-22 05:35:00,
2013-02-22 00:45:00,19.7,15.4,30.50,NNE,16,0.0,0.0,83,0.00,,,0.00,Wunderground v.1.15,2013-02-22 05:45:00,
2013-02-22 00:55:00,19.7,15.4,30.50,NNE,16,0.0,0.0,83,0.00,,,0.00,Wunderground v.1.15,2013-02-22 05:55:00,
2013-02-22 01:00:00,19.5,15.2,30.50,NNE,16,0.0,0.0,83,0.00,,,0.00,Wunderground v.1.15,2013-02-22 06:00:00,
2013-02-22 01:10:00,19.7,15.6,30.51,NNE,16,0.0,0.0,84,0.00,,,0.00,Wunderground v.1.15,2013-02-22 06:10:00,
2013-02-22 01:20:00,19.7,15.6,30.50,NNE,16,0.0,0.0,84,0.00,,,0.00,Wunderground v.1.15,2013-02-22 06:20:00,
2013-02-22 01:25:00,19.9,15.8,30.50,NNE,16,0.0,0.0,84,0.00,,,0.00,Wunderground v.1.15,2013-02-22 06:25:00,
2013-02-22 01:35:00,20.2,15.6,30.50,NNE,16,0.0,0.0,82,0.00,,,0.00,Wunderground v.1.15,2013-02-22 06:35:00,
2013-02-22 01:40:00,20.3,16.2,30.50,NNE,16,0.0,0.0,84,0.00,,,0.00,Wunderground v.1.15,2013-02-22 06:40:00,
2013-02-22 01:50:00,21.6,17.2,30.50,NNE,16,0.0,0.0,83,0.00,,,0.00,Wunderground v.1.15,2013-02-22 06:50:00,
2013-02-22 01:55:00,22.2,17.3,30.51,NNE,16,0.0,0.0,81,0.00,,,0.00,Wunderground v.1.15,2013-02-22 06:55:00,
2013-02-22 02:05:00,22.0,17.1,30.50,NNE,16,0.0,0.0,81,0.00,,,0.00,Wunderground v.1.15,2013-02-22 07:05:00,
2013-02-22 02:10:00,22.0,16.8,30.51,NNE,16,0.0,0.0,80,0.00,,,0.00,Wunderground v.1.15,2013-02-22 07:10:00,
2013-02-22 02:20:00,22.1,17.4,30.50,NNE,16,0.0,0.0,82,0.00,,,0.00,Wunderground v.1.15,2013-02-22 07:20:00,
2013-02-22 02:25:00,22.2,17.0,30.50,NNE,16,0.0,0.0,80,0.00,,,0.00,Wunderground v.1.15,2013-02-22 07:25:00,
2013-02-22 02:35:00,22.5,17.5,30.50,NNE,16,0.0,0.0,81,0.00,,,0.00,Wunderground v.1.15,2013-02-22 07:35:00,
2013-02-22 02:40:00,22.7,17.5,30.50,NNE,16,0.0,0.0,80,0.00,,,0.00,Wunderground v.1.15,2013-02-22 07:40:00,
2013-02-22 02:50:00,23.2,17.9,30.50,NNE,16,0.0,0.0,80,0.00,,,0.00,Wunderground v.1.15,2013-02-22 07:50:00,
2013-02-22 02:55:00,23.4,17.8,30.50,NNE,16,0.0,0.0,79,0.00,,,0.00,Wunderground v.1.15,2013-02-22 07:55:00,
2013-02-22 03:00:00,23.6,18.0,30.51,NNE,16,0.0,0.0,79,0.00,,,0.00,Wunderground v.1.15,2013-02-22 08:00:00,
2013-02-22 03:05:00,23.9,18.3,30.51,NNE,16,0.0,0.0,79,0.00,,,0.00,Wunderground v.1.15,2013-02-22 08:05:00,
2013-02-22 03:10:00,24.2,18.3,30.51,NNE,16,0.0,0.0,78,0.00,,,0.00,Wunderground v.1.15,2013-02-22 08:10:00,
2013-02-22 03:20:00,24.4,18.2,30.51,NNE,16,0.0,0.0,77,0.00,,,0.00,Wunderground v.1.15,2013-02-22 08:20:00,
2013-02-22 03:30:00,24.5,18.3,30.52,NNE,16,0.0,0.0,77,0.00,,,0.00,Wunderground v.1.15,2013-02-22 08:30:00,
2013-02-22 03:40:00,24.5,18.3,30.51,NNE,16,0.0,0.0,77,0.00,,,0.00,Wunderground v.1.15,2013-02-22 08:40:00,
2013-02-22 03:50:00,24.5,18.3,30.50,NNE,16,0.0,0.0,77,0.00,,,0.00,Wunderground v.1.15,2013-02-22 08:50:00,
2013-02-22 04:00:00,24.4,18.2,30.51,NNE,16,0.0,0.0,77,0.00,,,0.00,Wunderground v.1.15,2013-02-22 09:00:00,
2013-02-22 04:05:00,24.3,18.4,30.50,NNE,16,0.0,0.0,78,0.00,,,0.00,Wunderground v.1.15,2013-02-22 09:05:00,
2013-02-22 04:15:00,24.4,18.2,30.51,NNE,16,0.0,0.0,77,0.00,,,0.00,Wunderground v.1.15,2013-02-22 09:15:00,
2013-02-22 04:25:00,24.5,18.3,30.51,NNE,16,0.0,0.0,77,0.00,,,0.00,Wunderground v.1.15,2013-02-22 09:25:00,
2013-02-22 04:30:00,24.4,18.2,30.51,NNE,16,0.0,0.0,77,0.00,,,0.00,Wunderground v.1.15,2013-02-22 09:30:00,
2013-02-22 04:40:00,23.9,18.0,30.52,NNE,16,0.0,0.0,78,0.00,,,0.00,Wunderground v.1.15,2013-02-22 09:40:00,
2013-02-22 04:50:00,22.9,17.4,30.52,NNE,16,0.0,0.0,79,0.00,,,0.00,Wunderground v.1.15,2013-02-22 09:50:00,
2013-02-22 05:00:00,22.9,17.7,30.55,NNE,16,0.0,0.0,80,0.00,,,0.00,Wunderground v.1.15,2013-02-22 10:00:00,
2013-02-22 05:05:00,22.4,17.2,30.55,NNE,16,0.0,0.0,80,0.00,,,0.00,Wunderground v.1.15,2013-02-22 10:05:00,
2013-02-22 05:10:00,21.8,16.3,30.56,NNE,16,0.0,0.0,79,0.00,,,0.00,Wunderground v.1.15,2013-02-22 10:10:00,
2013-02-22 05:20:00,20.8,16.2,30.55,NNE,16,0.0,0.0,82,0.00,,,0.00,Wunderground v.1.15,2013-02-22 10:20:00,
2013-02-22 05:25:00,20.6,16.3,30.56,NNE,16,0.0,0.0,83,0.00,,,0.00,Wunderground v.1.15,2013-02-22 10:25:00,
2013-02-22 05:35:00,20.9,16.8,30.57,NNE,16,0.0,0.0,84,0.00,,,0.00,Wunderground v.1.15,2013-02-22 10:35:00,
2013-02-22 05:40:00,20.9,16.5,30.57,NNE,16,0.0,0.0,83,0.00,,,0.00,Wunderground v.1.15,2013-02-22 10:40:00,
2013-02-22 05:45:00,20.6,16.3,30.57,NNE,16,0.0,0.0,83,0.00,,,0.00,Wunderground v.1.15,2013-02-22 10:45:00,
2013-02-22 05:55:00,20.4,16.3,30.58,NNE,16,0.0,0.0,84,0.00,,,0.00,Wunderground v.1.15,2013-02-22 10:55:00,
2013-02-22 06:00:00,20.2,15.9,30.58,NNE,16,0.0,0.0,83,0.00,,,0.00,Wunderground v.1.15,2013-02-22 11:00:00,
2013-02-22 06:10:00,19.8,15.7,30.58,NNE,16,0.0,0.0,84,0.00,,,0.00,Wunderground v.1.15,2013-02-22 11:10:00,
2013-02-22 06:20:00,19.7,15.9,30.59,NNE,16,0.0,0.0,85,0.00,,,0.00,Wunderground v.1.15,2013-02-22 11:20:00,
2013-02-22 06:30:00,19.5,15.7,30.59,NNE,16,0.0,0.0,85,0.00,,,0.00,Wunderground v.1.15,2013-02-22 11:30:00,
2013-02-22 06:35:00,19.3,15.5,30.60,NNE,16,0.0,0.0,85,0.00,,,0.00,Wunderground v.1.15,2013-02-22 11:35:00,
2013-02-22 06:45:00,19.2,15.7,30.60,NNE,16,0.0,0.0,86,0.00,,,0.00,Wunderground v.1.15,2013-02-22 11:45:00,
2013-02-22 06:55:00,19.2,15.7,30.61,NNE,16,0.0,0.0,86,0.00,,,0.00,Wunderground v.1.15,2013-02-22 11:55:00,
2013-02-22 07:05:00,19.7,16.5,30.60,NNE,16,0.0,0.0,87,0.00,,,0.00,Wunderground v.1.15,2013-02-22 12:05:00,
2013-02-22 07:10:00,19.7,16.2,30.60,NNE,16,0.0,0.0,86,0.00,,,0.00,Wunderground v.1.15,2013-02-22 12:10:00,
2013-02-22 07:20:00,20.1,16.3,30.58,NNE,16,0.0,0.0,85,0.00,,,0.00,Wunderground v.1.15,2013-02-22 12:20:00,
2013-02-22 07:30:00,21.3,17.8,30.57,NNE,16,0.0,0.0,86,0.00,,,0.00,Wunderground v.1.15,2013-02-22 12:30:00,
2013-02-22 07:40:00,22.6,18.2,30.56,NNE,15,0.0,0.0,83,0.00,,,0.00,Wunderground v.1.15,2013-02-22 12:40:00,
2013-02-22 07:50:00,23.8,19.1,30.55,NNE,15,0.0,0.0,82,0.00,,,0.00,Wunderground v.1.15,2013-02-22 12:50:00,
2013-02-22 07:55:00,24.4,19.1,30.56,NNE,15,0.0,0.0,80,0.00,,,0.00,Wunderground v.1.15,2013-02-22 12:55:00,
2013-02-22 08:05:00,25.2,19.3,30.56,NNE,15,0.0,0.0,78,0.00,,,0.00,Wunderground v.1.15,2013-02-22 13:05:00,
2013-02-22 08:10:00,25.9,19.7,30.56,NNE,15,0.0,0.0,77,0.00,,,0.00,Wunderground v.1.15,2013-02-22 13:10:00,
2013-02-22 08:20:00,27.4,20.2,30.55,NNE,15,0.0,0.0,74,0.00,,,0.00,Wunderground v.1.15,2013-02-22 13:20:00,
2013-02-22 08:30:00,28.5,20.6,30.55,NNE,15,0.0,0.0,72,0.00,,,0.00,Wunderground v.1.15,2013-02-22 13:30:00,
2013-02-22 08:35:00,28.9,20.7,30.55,NNE,15,0.0,0.0,71,0.00,,,0.00,Wunderground v.1.15,2013-02-22 13:35:00,
2013-02-22 08:45:00,29.6,20.7,30.55,NNE,15,0.0,0.0,69,0.00,,,0.00,Wunderground v.1.15,2013-02-22 13:45:00,
2013-02-22 08:55:00,29.8,20.9,30.55,NNE,15,0.0,0.0,69,0.00,,,0.00,Wunderground v.1.15,2013-02-22 13:55:00,
2013-02-22 09:05:00,30.1,20.8,30.55,NNE,15,0.0,0.0,68,0.00,,,0.00,Wunderground v.1.15,2013-02-22 14:05:00,
2013-02-22 09:15:00,30.1,20.8,30.55,NNE,15,0.0,0.0,68,0.00,,,0.00,Wunderground v.1.15,2013-02-22 14:15:00,
2013-02-22 09:25:00,30.4,20.7,30.55,NNE,15,0.0,0.0,67,0.00,,,0.00,Wunderground v.1.15,2013-02-22 14:25:00,
2013-02-22 09:35:00,30.9,20.9,30.55,NNE,15,0.0,0.0,66,0.00,,,0.00,Wunderground v.1.15,2013-02-22 14:35:00,
2013-02-22 09:45:00,31.2,20.8,30.55,NNE,15,0.0,0.0,65,0.00,,,0.00,Wunderground v.1.15,2013-02-22 14:45:00,
2013-02-22 09:55:00,31.8,20.6,30.55,NNE,15,0.0,0.0,63,0.00,,,0.00,Wunderground v.1.15,2013-02-22 14:55:00,
2013-02-22 10:00:00,32.1,21.3,30.55,NNE,15,0.0,0.0,64,0.00,,,0.00,Wunderground v.1.15,2013-02-22 15:00:00,
2013-02-22 10:10:00,32.5,21.3,30.55,NNE,15,0.0,0.0,63,0.00,,,0.00,Wunderground v.1.15,2013-02-22 15:10:00,
2013-02-22 10:20:00,32.5,20.5,30.55,NNE,16,0.0,0.0,61,0.00,,,0.00,Wunderground v.1.15,2013-02-22 15:20:00,
2013-02-22 10:30:00,32.8,20.8,30.54,NNE,15,0.0,0.0,61,0.00,,,0.00,Wunderground v.1.15,2013-02-22 15:30:00,
2013-02-22 10:35:00,32.8,20.4,30.53,NNE,15,0.0,0.0,60,0.00,,,0.00,Wunderground v.1.15,2013-02-22 15:35:00,
2013-02-22 10:45:00,32.7,20.7,30.53,NNE,15,0.0,0.0,61,0.00,,,0.00,Wunderground v.1.15,2013-02-22 15:45:00,
2013-02-22 10:55:00,33.2,20.8,30.53,NNE,15,0.0,0.0,60,0.00,,,0.00,Wunderground v.1.15,2013-02-22 15:55:00,
2013-02-22 11:00:00,33.0,20.6,30.53,NNE,15,0.0,0.0,60,0.00,,,0.00,Wunderground v.1.15,2013-02-22 16:00:00,
2013-02-22 11:10:00,33.0,20.6,30.53,NNE,15,0.0,0.0,60,0.00,,,0.00,Wunderground v.1.15,2013-02-22 16:10:00,
2013-02-22 11:20:00,33.5,20.7,30.53,NNE,15,0.0,0.0,59,0.00,,,0.00,Wunderground v.1.15,2013-02-22 16:20:00,
2013-02-22 11:30:00,33.8,20.6,30.54,NNE,15,0.0,0.0,58,0.00,,,0.00,Wunderground v.1.15,2013-02-22 16:30:00,
2013-02-22 11:35:00,34.2,21.4,30.54,NNE,15,0.0,0.0,59,0.00,,,0.00,Wunderground v.1.15,2013-02-22 16:35:00,
2013-02-22 11:45:00,34.6,20.5,30.54,NNE,15,0.0,0.0,56,0.00,,,0.00,Wunderground v.1.15,2013-02-22 16:45:00,
2013-02-22 12:00:00,35.3,21.2,30.54,NNE,15,0.0,0.0,56,0.00,,,0.00,Wunderground v.1.15,2013-02-22 17:00:00,
2013-02-22 12:10:00,35.2,21.5,30.53,NNE,15,0.0,0.0,57,0.00,,,0.00,Wunderground v.1.15,2013-02-22 17:10:00,
2013-02-22 12:20:00,35.1,21.4,30.52,NNE,15,0.0,0.0,57,0.00,,,0.00,Wunderground v.1.15,2013-02-22 17:20:00,
2013-02-22 12:25:00,34.9,20.8,30.52,NNE,14,0.0,0.0,56,0.00,,,0.00,Wunderground v.1.15,2013-02-22 17:25:00,
2013-02-22 12:35:00,35.9,20.9,30.52,NNE,15,0.0,0.0,54,0.00,,,0.00,Wunderground v.1.15,2013-02-22 17:35:00,
2013-02-22 12:40:00,36.2,21.6,30.52,NNE,15,0.0,0.0,55,0.00,,,0.00,Wunderground v.1.15,2013-02-22 17:40:00,
2013-02-22 12:50:00,36.3,20.8,30.52,NNE,15,0.0,0.0,53,0.00,,,0.00,Wunderground v.1.15,2013-02-22 17:50:00,
2013-02-22 13:00:00,36.7,21.2,30.51,NNE,15,0.0,0.0,53,0.00,,,0.00,Wunderground v.1.15,2013-02-22 18:00:00,
2013-02-22 13:05:00,36.6,21.1,30.51,NNE,15,0.0,0.0,53,0.00,,,0.00,Wunderground v.1.15,2013-02-22 18:05:00,
2013-02-22 13:15:00,36.4,20.4,30.50,NNE,15,0.0,0.0,52,0.00,,,0.00,Wunderground v.1.15,2013-02-22 18:15:00,
2013-02-22 13:25:00,36.9,20.9,30.50,NNE,15,0.0,0.0,52,0.00,,,0.00,Wunderground v.1.15,2013-02-22 18:25:00,
2013-02-22 13:35:00,37.2,21.2,30.49,NNE,15,0.0,0.0,52,0.00,,,0.00,Wunderground v.1.15,2013-02-22 18:35:00,
2013-02-22 13:40:00,37.1,20.6,30.50,NNE,15,0.0,0.0,51,0.00,,,0.00,Wunderground v.1.15,2013-02-22 18:40:00,
2013-02-22 13:45:00,37.2,21.2,30.50,NNE,15,0.0,0.0,52,0.00,,,0.00,Wunderground v.1.15,2013-02-22 18:45:00,
2013-02-22 13:55:00,38.5,21.0,30.50,NNE,15,0.0,0.0,49,0.00,,,0.00,Wunderground v.1.15,2013-02-22 18:55:00,
2013-02-22 14:00:00,39.2,21.1,30.50,NNE,15,0.0,0.0,48,0.00,,,0.00,Wunderground v.1.15,2013-02-22 19:00:00,
2013-02-22 14:10:00,38.9,20.9,30.49,NNE,15,0.0,0.0,48,0.00,,,0.00,Wunderground v.1.15,2013-02-22 19:10:00,
2013-02-22 14:20:00,39.5,20.4,30.49,NNE,15,0.0,0.0,46,0.00,,,0.00,Wunderground v.1.15,2013-02-22 19:20:00,
2013-02-22 14:25:00,39.6,21.5,30.49,NNE,15,0.0,0.0,48,0.00,,,0.00,Wunderground v.1.15,2013-02-22 19:25:00,
2013-02-22 14:35:00,39.4,20.3,30.50,NNE,15,0.0,0.0,46,0.00,,,0.00,Wunderground v.1.15,2013-02-22 19:35:00,
2013-02-22 14:40:00,39.7,20.6,30.49,NNE,15,0.0,0.0,46,0.00,,,0.00,Wunderground v.1.15,2013-02-22 19:40:00,
2013-02-22 14:50:00,39.3,21.2,30.49,NNE,15,0.0,0.0,48,0.00,,,0.00,Wunderground v.1.15,2013-02-22 19:50:00,
2013-02-22 15:00:00,38.5,20.5,30.49,NNE,15,0.0,0.0,48,0.00,,,0.00,Wunderground v.1.15,2013-02-22 20:00:00,
2013-02-22 15:05:00,38.4,19.9,30.49,NNE,15,0.0,0.0,47,0.00,,,0.00,Wunderground v.1.15,2013-02-22 20:05:00,
2013-02-22 15:15:00,38.5,21.0,30.48,NNE,15,0.0,0.0,49,0.00,,,0.00,Wunderground v.1.15,2013-02-22 20:15:00,
2013-02-22 15:25:00,38.2,20.2,30.48,NNE,15,0.0,0.0,48,0.00,,,0.00,Wunderground v.1.15,2013-02-22 20:25:00,
2013-02-22 15:30:00,38.0,21.0,30.48,NNE,15,0.0,0.0,50,0.00,,,0.00,Wunderground v.1.15,2013-02-22 20:30:00,
2013-02-22 15:40:00,38.1,20.1,30.47,NNE,15,0.0,0.0,48,0.00,,,0.00,Wunderground v.1.15,2013-02-22 20:40:00,
2013-02-22 15:50:00,38.1,20.1,30.47,NNE,15,0.0,0.0,48,0.00,,,0.00,Wunderground v.1.15,2013-02-22 20:50:00,
2013-02-22 15:55:00,38.1,20.6,30.47,NNE,15,0.0,0.0,49,0.00,,,0.00,Wunderground v.1.15,2013-02-22 20:55:00,
2013-02-22 16:05:00,38.1,20.1,30.46,NNE,15,0.0,0.0,48,0.00,,,0.00,Wunderground v.1.15,2013-02-22 21:05:00,
2013-02-22 16:10:00,37.9,20.4,30.47,NNE,15,0.0,0.0,49,0.00,,,0.00,Wunderground v.1.15,2013-02-22 21:10:00,
2013-02-22 16:20:00,37.5,21.0,30.47,NNE,15,0.0,0.0,51,0.00,,,0.00,Wunderground v.1.15,2013-02-22 21:20:00,
2013-02-22 16:30:00,37.4,20.9,30.47,NNE,15,0.0,0.0,51,0.00,,,0.00,Wunderground v.1.15,2013-02-22 21:30:00,
2013-02-22 16:35:00,37.3,20.8,30.46,NNE,15,0.0,0.0,51,0.00,,,0.00,Wunderground v.1.15,2013-02-22 21:35:00,
2013-02-22 16:40:00,37.3,21.7,30.46,NNE,15,0.0,0.0,53,0.00,,,0.00,Wunderground v.1.15,2013-02-22 21:40:00,
2013-02-22 16:50:00,36.8,21.3,30.47,NNE,15,0.0,0.0,53,0.00,,,0.00,Wunderground v.1.15,2013-02-22 21:50:00,
2013-02-22 16:55:00,36.6,20.6,30.48,NNE,15,0.0,0.0,52,0.00,,,0.00,Wunderground v.1.15,2013-02-22 21:55:00,
2013-02-22 17:05:00,36.2,22.8,30.48,NNE,15,0.0,0.0,58,0.00,,,0.00,Wunderground v.1.15,2013-02-22 22:05:00,
2013-02-22 17:10:00,36.0,23.0,30.47,NNE,15,0.0,0.0,59,0.00,,,0.00,Wunderground v.1.15,2013-02-22 22:10:00,
2013-02-22 17:20:00,35.3,25.4,30.47,NNE,15,0.0,0.0,67,0.00,,,0.00,Wunderground v.1.15,2013-02-22 22:20:00,
2013-02-22 17:30:00,34.4,23.5,30.48,NNE,15,0.0,0.0,64,0.00,,,0.00,Wunderground v.1.15,2013-02-22 22:30:00,
2013-02-22 17:35:00,34.2,24.7,30.48,NNE,15,0.0,0.0,68,0.00,,,0.00,Wunderground v.1.15,2013-02-22 22:35:00,
2013-02-22 17:45:00,33.5,24.4,30.49,NNE,15,0.0,0.0,69,0.00,,,0.00,Wunderground v.1.15,2013-02-22 22:45:00,
2013-02-22 17:55:00,33.0,25.0,30.49,NNE,16,0.0,0.0,72,0.00,,,0.00,Wunderground v.1.15,2013-02-22 22:55:00,
2013-02-22 18:00:00,32.7,24.7,30.48,NNE,16,0.0,0.0,72,0.00,,,0.00,Wunderground v.1.15,2013-02-22 23:00:00,
2013-02-22 18:10:00,32.2,24.8,30.48,NNE,16,0.0,0.0,74,0.00,,,0.00,Wunderground v.1.15,2013-02-22 23:10:00,
2013-02-22 18:20:00,31.8,24.8,30.49,NNE,16,0.0,0.0,75,0.00,,,0.00,Wunderground v.1.15,2013-02-22 23:20:00,
2013-02-22 18:30:00,31.6,25.2,30.49,NNE,16,0.0,0.0,77,0.00,,,0.00,Wunderground v.1.15,2013-02-22 23:30:00,
2013-02-22 18:35:00,31.5,25.4,30.48,NNE,16,0.0,0.0,78,0.00,,,0.00,Wunderground v.1.15,2013-02-22 23:35:00,
2013-02-22 18:45:00,31.2,25.4,30.48,NNE,16,0.0,0.0,79,0.00,,,0.00,Wunderground v.1.15,2013-02-22 23:45:00,
2013-02-22 18:55:00,31.2,25.7,30.50,NNE,16,0.0,0.0,80,0.00,,,0.00,Wunderground v.1.15,2013-02-22 23:55:00,
2013-02-22 19:05:00,31.1,25.7,30.50,NNE,16,0.0,0.0,80,0.00,,,0.00,Wunderground v.1.15,2013-02-23 00:05:00,
2013-02-22 19:10:00,31.1,25.7,30.49,NNE,16,0.0,0.0,80,0.00,,,0.00,Wunderground v.1.15,2013-02-23 00:10:00,
2013-02-22 19:15:00,31.1,25.7,30.50,NNE,16,0.0,0.0,80,0.00,,,0.00,Wunderground v.1.15,2013-02-23 00:15:00,
2013-02-22 19:20:00,31.1,25.7,30.49,NNE,16,0.0,0.0,80,0.00,,,0.00,Wunderground v.1.15,2013-02-23 00:20:00,
2013-02-22 19:30:00,31.0,25.6,30.49,NNE,16,0.0,0.0,80,0.00,,,0.00,Wunderground v.1.15,2013-02-23 00:30:00,
2013-02-22 19:35:00,31.1,25.3,30.48,NNE,16,0.0,0.0,79,0.00,,,0.00,Wunderground v.1.15,2013-02-23 00:35:00,
2013-02-22 19:45:00,31.3,24.3,30.49,NNE,16,0.0,0.0,75,0.00,,,0.00,Wunderground v.1.15,2013-02-23 00:45:00,
2013-02-22 19:55:00,32.1,23.1,30.49,NNE,16,0.0,0.0,69,0.00,,,0.00,Wunderground v.1.15,2013-02-23 00:55:00,
2013-02-22 20:00:00,32.5,22.4,30.49,NNE,16,0.0,0.0,66,0.00,,,0.00,Wunderground v.1.15,2013-02-23 01:00:00,
2013-02-22 20:10:00,32.7,22.9,30.49,NNE,16,0.0,0.0,67,0.00,,,0.00,Wunderground v.1.15,2013-02-23 01:10:00,
2013-02-22 20:20:00,33.0,22.1,30.49,NNE,16,0.0,0.0,64,0.00,,,0.00,Wunderground v.1.15,2013-02-23 01:20:00,
2013-02-22 20:25:00,33.2,23.1,30.49,NNE,16,0.0,0.0,66,0.00,,,0.00,Wunderground v.1.15,2013-02-23 01:25:00,
2013-02-22 20:35:00,33.0,23.6,30.49,NNE,16,0.0,0.0,68,0.00,,,0.00,Wunderground v.1.15,2013-02-23 01:35:00,
2013-02-22 20:40:00,32.8,23.7,30.49,NNE,16,0.0,0.0,69,0.00,,,0.00,Wunderground v.1.15,2013-02-23 01:40:00,
2013-02-22 20:50:00,32.6,21.4,30.49,NNE,16,0.0,0.0,63,0.00,,,0.00,Wunderground v.1.15,2013-02-23 01:50:00,
2013-02-22 21:00:00,32.7,22.6,30.48,NNE,16,0.0,0.0,66,0.00,,,0.00,Wunderground v.1.15,2013-02-23 02:00:00,
2013-02-22 21:05:00,32.7,22.6,30.49,NNE,16,0.0,0.0,66,0.00,,,0.00,Wunderground v.1.15,2013-02-23 02:05:00,
2013-02-22 21:15:00,32.5,24.1,30.49,NNE,16,0.0,0.0,71,0.00,,,0.00,Wunderground v.1.15,2013-02-23 02:15:00,
2013-02-22 21:25:00,32.3,22.2,30.49,NNE,16,0.0,0.0,66,0.00,,,0.00,Wunderground v.1.15,2013-02-23 02:25:00,
2013-02-22 21:30:00,32.4,22.3,30.49,NNE,16,0.0,0.0,66,0.00,,,0.00,Wunderground v.1.15,2013-02-23 02:30:00,
2013-02-22 21:40:00,32.7,22.2,30.49,NNE,16,0.0,0.0,65,0.00,,,0.00,Wunderground v.1.15,2013-02-23 02:40:00,
2013-02-22 21:50:00,32.8,22.0,30.49,NNE,16,0.0,0.0,64,0.00,,,0.00,Wunderground v.1.15,2013-02-23 02:50:00,
2013-02-22 22:00:00,32.8,22.3,30.49,NNE,16,0.0,0.0,65,0.00,,,0.00,Wunderground v.1.15,2013-02-23 03:00:00,
2013-02-22 22:10:00,32.6,22.1,30.49,NNE,16,0.0,0.0,65,0.00,,,0.00,Wunderground v.1.15,2013-02-23 03:10:00,
2013-02-22 22:20:00,32.6,22.1,30.49,NNE,16,0.0,0.0,65,0.00,,,0.00,Wunderground v.1.15,2013-02-23 03:20:00,
2013-02-22 22:30:00,32.5,22.4,30.49,NNE,16,0.0,0.0,66,0.00,,,0.00,Wunderground v.1.15,2013-02-23 03:30:00,
2013-02-22 22:40:00,32.4,22.7,30.49,NNE,16,0.0,0.0,67,0.00,,,0.00,Wunderground v.1.15,2013-02-23 03:40:00,
2013-02-22 22:50:00,32.3,23.3,30.49,NNE,16,0.0,0.0,69,0.00,,,0.00,Wunderground v.1.15,2013-02-23 03:50:00,
2013-02-22 23:00:00,32.2,23.5,30.49,NNE,16,0.0,0.0,70,0.00,,,0.00,Wunderground v.1.15,2013-02-23 04:00:00,
2013-02-22 23:10:00,32.1,23.8,30.49,NNE,16,0.0,0.0,71,0.00,,,0.00,Wunderground v.1.15,2013-02-23 04:10:00,
2013-02-22 23:20:00,31.9,23.9,30.49,NNE,16,0.0,0.0,72,0.00,,,0.00,Wunderground v.1.15,2013-02-23 04:20:00,
2013-02-22 23:30:00,31.8,23.8,30.49,NNE,16,0.0,0.0,72,0.00,,,0.00,Wunderground v.1.15,2013-02-23 04:30:00,
2013-02-22 23:40:00,31.8,23.8,30.48,NNE,16,0.0,0.0,72,0.00,,,0.00,Wunderground v.1.15,2013-02-23 04:40:00,
2013-02-22 23:50:00,31.8,23.8,30.48,NNE,16,0.0,0.0,72,0.00,,,0.00,Wunderground v.1.15,2013-02-23 04:50:00,
2013-02-22 23:55:00,31.8,24.1,30.49,NNE,16,0.0,0.0,73,0.00,,,0.00,Wunderground v.1.15,2013-02-23 04:55:00,